Iowa City, IA

3:35 PM CDT on October 16, 2019 (GMT -0500)
Iowa City Municipal

Weather History for KIOW - July, 2019

Change the Weather History Date:

Wednesday, July 10, 2019

  Actual Average Record
Temperature  
Mean Temperature 80 °F 75 °F  
Max Temperature 89 °F 85 °F 100 °F (1989)
Min Temperature 71 °F 65 °F 51 °F (1953)
Degree Days  
Heating Degree Days 0 0  
Month to date heating degree days 0 0  
Since 1 June heating degree days 6 17  
Since 1 July heating degree days 0 0  
Cooling Degree Days 15 10  
Month to date cooling degree days 148 100  
Year to date cooling degree days 392 372  
Since 1 June cooling degree days 346 311  
Growing Degree Days 30 (Base 50)    
Moisture  
Dew Point 66 °F    
Average Humidity 64    
Maximum Humidity 94    
Minimum Humidity 34    
Precipitation  
Precipitation T in 0.18 in 2.45 in (2002)
Month to date precipitation 0.30 1.82  
Year to date precipitation 24.03 18.52  
Sea Level Pressure  
Sea Level Pressure 29.94 in    
Wind  
Wind Speed 10 mph (West)    
Max Wind Speed 25 mph    
Max Gust Speed 33 mph    
Visibility 10 miles    
Events      
T = Trace of Precipitation, MM = Missing Value Source: NWS Daily Summary

Daily Weather History Graph

Daily Weather History Graph

Search for Another Location

Airport or City:

Astronomy

Jul. 10, 2019 Rise Set
Actual Time 5:41 AM CDT 8:41 PM CDT
Civil Twilight 5:07 AM CDT 9:15 PM CDT
Nautical Twilight 4:25 AM CDT 9:57 PM CDT
Astronomical Twilight 3:34 AM CDT 10:47 PM CDT
Moon 2:45 PM CDT (7/10) 1:24 AM CDT (7/10)
Length of Visible Light 16h 07m
Length of Day
15h 00m
Waxing Gibbous, 64% of the Moon is Illuminated
Jul 10
Waxing Gibbous
Jul 16
Full
Jul 24
Last Quarter
Jul 31
New
Aug 7
First Quarter

Hourly Weather History & Observations

Time (CDT) Temp. Heat Index Dew Point Humidity Pressure Visibility Wind Dir Wind Speed Gust Speed Precip Events Conditions
12:52 AM 75.9 °F - 73.0 °F 91% 29.90 in 10.0 mi Calm Calm - N/A   Clear
1:52 AM 75.9 °F - 72.0 °F 87% 29.91 in 10.0 mi West 3.5 mph - N/A   Clear
2:52 AM 75.9 °F - 71.1 °F 85% 29.91 in 10.0 mi SSW 3.5 mph - N/A   Clear
3:52 AM 75.0 °F - 71.1 °F 87% 29.91 in 10.0 mi Calm Calm - N/A   Clear
4:52 AM 73.0 °F - 70.0 °F 90% 29.91 in 10.0 mi West 3.5 mph - N/A   Clear
5:52 AM 73.0 °F - 70.0 °F 90% 29.93 in 10.0 mi West 4.6 mph - N/A   Clear
6:52 AM 75.9 °F - 71.1 °F 85% 29.94 in 10.0 mi West 8.1 mph - 0.00 in   Clear
7:52 AM 79.0 °F - 72.0 °F 79% 29.95 in 10.0 mi West 8.1 mph - N/A   Clear
8:52 AM 82.9 °F 87.5 °F 71.1 °F 67% 29.96 in 10.0 mi West 8.1 mph - N/A   Clear
9:52 AM 87.1 °F 92.8 °F 71.1 °F 59% 29.95 in 10.0 mi West 10.4 mph - N/A   Clear
10:52 AM 87.1 °F 92.0 °F 70.0 °F 57% 29.94 in 10.0 mi West 13.8 mph - N/A   Clear
11:52 AM 88.0 °F 91.4 °F 68.0 °F 51% 29.94 in 10.0 mi West 16.1 mph 25.3 mph N/A   Clear
12:52 PM 88.0 °F 87.9 °F 61.0 °F 40% 29.95 in 10.0 mi West 11.5 mph 25.3 mph N/A   Clear
1:52 PM 88.0 °F 86.9 °F 57.9 °F 36% 29.94 in 10.0 mi West 17.3 mph 26.5 mph N/A   Clear
2:52 PM 87.1 °F 86.5 °F 59.0 °F 39% 29.94 in 10.0 mi West 17.3 mph 27.6 mph N/A   Clear
3:52 PM 88.0 °F 86.5 °F 55.9 °F 34% 29.92 in 10.0 mi West 19.6 mph 29.9 mph N/A   Clear
4:52 PM 86.0 °F 85.7 °F 60.1 °F 41% 29.92 in 10.0 mi West 17.3 mph 26.5 mph N/A   Clear
5:52 PM 84.9 °F 84.8 °F 60.1 °F 43% 29.94 in 10.0 mi WNW 18.4 mph 23.0 mph N/A   Scattered Clouds
6:52 PM 82.9 °F 83.3 °F 61.0 °F 47% 29.94 in 10.0 mi West 9.2 mph - N/A   Mostly Cloudy
7:52 PM 82.0 °F 83.0 °F 62.1 °F 51% 29.93 in 10.0 mi West 10.4 mph - N/A   Overcast
8:52 PM 78.1 °F - 63.0 °F 60% 29.94 in 10.0 mi West 8.1 mph - N/A   Clear
9:52 PM 75.9 °F - 63.0 °F 64% 29.96 in 10.0 mi West 6.9 mph - N/A   Mostly Cloudy
10:52 PM 75.0 °F - 64.0 °F 69% 29.96 in 10.0 mi West 6.9 mph - 0.00 in   Overcast
11:52 PM 75.0 °F - 64.9 °F 71% 29.95 in 10.0 mi West 6.9 mph - N/A   Overcast